地平线卫星 33星 (GORIZONT 33)

导读 | 豆包AI

GORIZONT 33又名地平线33号,是俄罗斯(原独联体CIS)地平线通信卫星系列的最后一颗,由应用力学设计局研发。2000年6月6日在拜科努尔发射场由质子K Briz-M火箭送入地球同步轨道,质量约2300千克,设计寿命3年,携带C波段、Ku波段和L波段转发器,主要承担民用通信、广播电视传输任务,它是质子K/微风M火箭首次成功发射的有效载荷,该系列卫星后续被“快车”系列逐步取代。

基本信息
目录编号:
26372
目录名称:
GORIZONT 33
国际标识:
2000-029A
轨道中心:
EARTH
卫星名称:
地平线卫星 33星
卫星全名:
地平线卫星 33星 (GORIZONT 33)
卫星状态:
在轨 (已飞行9460 天)
发射日期:
2000-06-06 UTC
国别 :
俄罗斯(独联体) (CIS)
星等 :
--
轨道信息
数据来源 国际轨道数据 AOE轨道数据
星历时间 2026-05-01T01:08:48+0800
14小时前
查看轨道信息
2026-05-01T05:00:00+0800
10小时前
查看轨道信息
半长轴 42198.655km 42198.262km
偏心率 0.0002222 0.0002025
轨道倾角 13.853° 13.853°
近地点辐角 263.874° 264.500°
升交点赤经 7.151° 7.149°
平近点角 273.517° 330.787°
近地点 35811.141km 35811.579km
远地点 35829.895km 35828.671km
周期 1437.830分钟 1437.810分钟
每日圈数 1.001509 1.001523
详细信息
平衡模式:
三轴稳定
覆盖范围:
全球
运营商:
俄罗斯国家航天集团
运营商所在国:
俄罗斯
制造商(研发单位):
普里克拉德诺伊·梅哈尼基设计局
制造商所在国:
俄罗斯联邦
使用方式:
暂无
卫星简介
地平线卫星(Gorizont)(俄语:Горизонт,Horizon),是1978年至2000年间发射的一系列(共35颗)俄罗斯(前苏联)地球同步通信卫星。该计划的启动是为了开发一个卫星系统来中继信号使全球覆盖1980年的莫斯科奥运会。 最初的四颗卫星是为了这个唯一目的而发射的。 此后,Gorizont系统被集成到YesSSS统一卫星通信系统中,用于中继民用和军用通信。 从1988年起,这些卫星还被用于支持Okean计划。该卫星已退役。
2D轨道图
3D轨道图
轨道高度分析图
轨道倾角分析图
轨道综合分析图
查看轨道综合分析图